Weather in Zanadvorovka

Russia / Primorsky Krai     43°18′00″N   131°36′30″E
temp.,
°C
wind,
m/s
gust,
m/s
humid.,
%
clouds,
%
prec.,
mm/h
press.,
hPa
HPBL,
m
21 april, wed
wed2101:00+6nw22320 0.0 102129
04:00+6wnw22324 0.0 102215
07:00+5wnw11330 0.0 102311
10:00+14sse11201 0.0 1023442
13:00+19s23160 0.0 10211331
16:00+19sse45210 0.0 1019573
19:00+15se23320 0.0 1020188
22:00+9wsw11500 0.0 102111
22 april, thu
thu2201:00+8ssw11545 0.0 102211
04:00+8sw115710 0.0 102210
07:00+8wnw0057100 0.0 102210
10:00+15se2248100 0.0 1022316
13:00+15sse5646100 0.0 1024635
16:00+12sse4744100 0.0 1025610
19:00+8s31050100 0.0 1026627
22:00+6ssw2106499 0.0 1028604
23 april, fri
fri2301:00+4ssw2376100 0.0 1028135
04:00+4sw1181100 0.0 102745
07:00+4ssw1182100 0.0 102764
10:00+9s2362100 0.0 1027431
13:00+13s2454100 0.0 1026563
16:00+16sse3446100 0.0 1023640
19:00+11se2263100 0.0 1023111
22:00+8s0076100 0.0 102413
24 april, sat
sat2401:00+9n1173100 0.0 102312
04:00+9nnw0181100 0.0 102212
07:00+9nne2388100 0.0 102290
10:00+4nne51381100 0.0 1025654
13:00+6n5106784 0.0 1025822
16:00+13n59222 0.0 10212004
19:00+12n410213 0.0 10221987
22:00+7nw37310 0.0 1023191
25 april, sun
sun2501:00+4wnw34380 0.0 102463
04:00+4wnw34410 0.0 102371
07:00+3wnw24450 0.0 102378
10:00+12nnw410220 0.0 10212124
13:00+15nnw69185 0.0 10182945
16:00+17nnw5917100 0.0 10163482
19:00+15nw382213 0.0 10161022
22:00+9wnw22345 0.0 101726